Hourly Weather Asmera

Today, 27 July, Tuesday

Time Temperature Precipitation Wind Pressure Humidity
00:00 +18°C° 0.3 mm 2 mps 579 mmHg 75%
01:00 +18°C° 0.2 mm 2 mps 578 mmHg 74%
02:00 +18°C° 0.2 mm 2 mps 578 mmHg 73%
03:00 +18°C° 0.2 mm 2 mps 577 mmHg 72%
04:00 +17°C° 0.2 mm 2 mps 577 mmHg 72%
05:00 +17°C° 0.2 mm 2 mps 577 mmHg 72%
06:00 +17°C° 0.2 mm 2 mps 577 mmHg 72%
07:00 +18°C° 0.1 mm 2 mps 578 mmHg 69%
08:00 +18°C° 0.1 mm 2 mps 578 mmHg 67%
09:00 +19°C° 0.1 mm 2 mps 579 mmHg 64%
10:00 +19°C° 0.2 mm 3 mps 579 mmHg 63%
11:00 +20°C° 0.2 mm 3 mps 579 mmHg 62%
12:00 +20°C° 0.2 mm 3 mps 579 mmHg 61%
13:00 +20°C° 0.1 mm 3 mps 579 mmHg 60%
14:00 +21°C° 0.1 mm 4 mps 579 mmHg 60%
15:00 +21°C° 0.1 mm 4 mps 578 mmHg 59%
16:00 +20°C° 0 mm 4 mps 578 mmHg 62%
17:00 +19°C° 0 mm 4 mps 578 mmHg 66%
18:00 +18°C° 0 mm 4 mps 578 mmHg 69%
19:00 +18°C° 0 mm 4 mps 578 mmHg 72%
20:00 +17°C° 0 mm 4 mps 578 mmHg 75%
21:00 +17°C° 0 mm 4 mps 578 mmHg 78%
22:00 +17°C° 0 mm 4 mps 578 mmHg 77%
23:00 +15°C° 0 mm 4 mps 577 mmHg 77%

Tomorrow, 28 July, Wednesday

Time Temperature Precipitation Wind Pressure Humidity
00:00 +15°C° 0 mm 4 mps 577 mmHg 77%
01:00 +16°C° 0 mm 3 mps 577 mmHg 77%
02:00 +16°C° 0 mm 3 mps 577 mmHg 78%
03:00 +16°C° 0 mm 3 mps 576 mmHg 78%
04:00 +16°C° 0 mm 3 mps 576 mmHg 79%
05:00 +16°C° 0 mm 3 mps 576 mmHg 80%
06:00 +14°C° 0 mm 3 mps 576 mmHg 80%
07:00 +16°C° 0 mm 3 mps 577 mmHg 76%
08:00 +17°C° 0 mm 3 mps 578 mmHg 72%
09:00 +18°C° 0 mm 3 mps 578 mmHg 67%
10:00 +19°C° 0 mm 3 mps 578 mmHg 63%
11:00 +20°C° 0 mm 3 mps 579 mmHg 59%
12:00 +21°C° 0 mm 2 mps 579 mmHg 55%
13:00 +21°C° 0.1 mm 3 mps 579 mmHg 55%
14:00 +22°C° 0.1 mm 3 mps 578 mmHg 55%
15:00 +22°C° 0.1 mm 4 mps 578 mmHg 55%
16:00 +21°C° 0.1 mm 4 mps 578 mmHg 60%
17:00 +20°C° 0.1 mm 4 mps 578 mmHg 65%
18:00 +19°C° 0.1 mm 4 mps 577 mmHg 70%
19:00 +18°C° 0.1 mm 4 mps 577 mmHg 73%
20:00 +18°C° 0.1 mm 4 mps 578 mmHg 75%
21:00 +17°C° 0.1 mm 4 mps 578 mmHg 78%
22:00 +17°C° 0 mm 4 mps 578 mmHg 77%
23:00 +17°C° 0 mm 4 mps 578 mmHg 77%

Day after tomorrow, 29 July, Thursday

Time Temperature Precipitation Wind Pressure Humidity
00:00 +17°C° 0 mm 4 mps 578 mmHg 76%
01:00 +17°C° 0 mm 4 mps 577 mmHg 78%
02:00 +17°C° 0 mm 4 mps 577 mmHg 79%
03:00 +17°C° 0 mm 4 mps 576 mmHg 80%
04:00 +15°C° 0 mm 4 mps 577 mmHg 81%
05:00 +16°C° 0 mm 3 mps 577 mmHg 81%
06:00 +16°C° 0 mm 3 mps 577 mmHg 81%
07:00 +17°C° 0.1 mm 3 mps 578 mmHg 77%
08:00 +18°C° 0.1 mm 3 mps 578 mmHg 73%
09:00 +19°C° 0.1 mm 3 mps 579 mmHg 69%
10:00 +20°C° 0.3 mm 3 mps 579 mmHg 64%
11:00 +21°C° 0.3 mm 3 mps 579 mmHg 59%
12:00 +22°C° 0.3 mm 3 mps 580 mmHg 54%
13:00 +22°C° 0.3 mm 3 mps 579 mmHg 54%
14:00 +22°C° 0.3 mm 4 mps 579 mmHg 55%
15:00 +22°C° 0.3 mm 4 mps 579 mmHg 55%
16:00 +21°C° 0.4 mm 4 mps 578 mmHg 59%
17:00 +20°C° 0.4 mm 4 mps 578 mmHg 64%
18:00 +20°C° 0.4 mm 4 mps 578 mmHg 69%
19:00 +19°C° 0.3 mm 4 mps 578 mmHg 72%
20:00 +18°C° 0.3 mm 3 mps 578 mmHg 75%
21:00 +18°C° 0.3 mm 3 mps 578 mmHg 78%
22:00 +18°C° 0.4 mm 3 mps 578 mmHg 78%
23:00 +18°C° 0.4 mm 3 mps 578 mmHg 78%

30 July, Friday

Time Temperature Precipitation Wind Pressure Humidity
00:00 +18°C° 0.4 mm 3 mps 578 mmHg 78%
01:00 +17°C° 0.2 mm 3 mps 578 mmHg 77%
02:00 +17°C° 0.2 mm 3 mps 577 mmHg 76%
03:00 +17°C° 0.2 mm 3 mps 577 mmHg 75%
04:00 +17°C° 1.1 mm 2 mps 577 mmHg 75%
05:00 +17°C° 1.1 mm 2 mps 577 mmHg 74%
06:00 +18°C° 1.1 mm 1 mps 577 mmHg 74%
07:00 +18°C° 0.6 mm 2 mps 578 mmHg 68%
08:00 +19°C° 0.6 mm 2 mps 578 mmHg 63%
09:00 +20°C° 0.6 mm 2 mps 579 mmHg 57%
10:00 +20°C° 0.8 mm 2 mps 579 mmHg 59%
11:00 +20°C° 0.8 mm 2 mps 579 mmHg 61%
12:00 +20°C° 0.8 mm 3 mps 579 mmHg 62%
13:00 +20°C° 0.8 mm 2 mps 579 mmHg 62%
14:00 +20°C° 0.8 mm 2 mps 579 mmHg 62%
15:00 +22°C° 0.8 mm 1 mps 579 mmHg 61%
16:00 +20°C° 0.6 mm 2 mps 579 mmHg 64%
17:00 +20°C° 0.6 mm 2 mps 578 mmHg 66%
18:00 +19°C° 0.6 mm 3 mps 578 mmHg 68%
19:00 +19°C° 0.9 mm 3 mps 578 mmHg 73%
20:00 +18°C° 0.9 mm 3 mps 578 mmHg 78%
21:00 +17°C° 0.9 mm 3 mps 579 mmHg 83%
22:00 +17°C° 1.1 mm 3 mps 579 mmHg 82%
23:00 +17°C° 1.1 mm 2 mps 579 mmHg 82%

31 July, Saturday

Time Temperature Precipitation Wind Pressure Humidity
00:00 +16°C° 1.1 mm 2 mps 579 mmHg 82%
01:00 +16°C° 0.2 mm 2 mps 578 mmHg 82%
02:00 +16°C° 0.2 mm 3 mps 578 mmHg 81%
03:00 +16°C° 0.2 mm 3 mps 577 mmHg 81%
04:00 +16°C° 0 mm 2 mps 577 mmHg 81%
05:00 +16°C° 0 mm 2 mps 578 mmHg 81%
06:00 +16°C° 0 mm 2 mps 578 mmHg 80%
07:00 +16°C° 0.2 mm 2 mps 578 mmHg 79%
08:00 +17°C° 0.2 mm 2 mps 579 mmHg 77%
09:00 +17°C° 0.2 mm 2 mps 579 mmHg 75%
10:00 +18°C° 1 mm 2 mps 579 mmHg 74%
11:00 +18°C° 1 mm 2 mps 579 mmHg 72%
12:00 +18°C° 1 mm 2 mps 580 mmHg 70%
13:00 +18°C° 1.6 mm 2 mps 579 mmHg 71%
14:00 +18°C° 1.6 mm 2 mps 579 mmHg 72%
15:00 +18°C° 1.6 mm 2 mps 578 mmHg 73%
16:00 +18°C° 0.9 mm 2 mps 578 mmHg 74%
17:00 +18°C° 0.9 mm 2 mps 579 mmHg 75%
18:00 +17°C° 0.9 mm 2 mps 579 mmHg 76%
19:00 +17°C° 1.1 mm 2 mps 579 mmHg 78%
20:00 +17°C° 1.1 mm 2 mps 579 mmHg 80%
21:00 +16°C° 1.1 mm 1 mps 579 mmHg 81%
22:00 +16°C° 1.3 mm 1 mps 579 mmHg 82%
23:00 +16°C° 1.3 mm 1 mps 579 mmHg 83%

1 August, Sunday

Time Temperature Precipitation Wind Pressure Humidity
00:00 +16°C° 1.3 mm 1 mps 579 mmHg 84%
01:00 +16°C° 1.1 mm 2 mps 579 mmHg 83%
02:00 +16°C° 1.1 mm 2 mps 578 mmHg 83%
03:00 +16°C° 1.1 mm 2 mps 578 mmHg 83%
04:00 +15°C° 1.4 mm 2 mps 578 mmHg 83%
05:00 +15°C° 1.4 mm 2 mps 578 mmHg 83%
06:00 +15°C° 1.4 mm 1 mps 579 mmHg 83%
07:00 +15°C° 0.9 mm 2 mps 579 mmHg 81%
08:00 +15°C° 0.9 mm 2 mps 579 mmHg 79%
09:00 +15°C° 0.9 mm 2 mps 579 mmHg 78%
10:00 +16°C° 0.2 mm 2 mps 580 mmHg 72%
11:00 +17°C° 0.2 mm 2 mps 580 mmHg 66%
12:00 +18°C° 0.2 mm 2 mps 580 mmHg 61%
13:00 +19°C° 0.5 mm 2 mps 580 mmHg 60%
14:00 +20°C° 0.5 mm 1 mps 580 mmHg 60%
15:00 +21°C° 0.5 mm 1 mps 579 mmHg 59%
16:00 +20°C° 0.3 mm 1 mps 579 mmHg 60%
17:00 +20°C° 0.3 mm 1 mps 580 mmHg 61%
18:00 +19°C° 0.3 mm 2 mps 580 mmHg 61%
19:00 +19°C° 0.1 mm 1 mps 580 mmHg 68%
20:00 +18°C° 0.1 mm 1 mps 580 mmHg 74%
21:00 +16°C° 0.1 mm 1 mps 580 mmHg 80%
22:00 +16°C° 0.4 mm 2 mps 580 mmHg 81%
23:00 +15°C° 0.4 mm 2 mps 579 mmHg 82%
Show more

We Need Your Consent

Meteoprog and our Service Providers may store and access personal data such as cookies, device identifiers or other similar technologies on your device and process such data to personalise content and ads, as well as provide social media features and to analyse the traffic.

  • Store and/or access information on your device

    Cookies, device identifiers or other information can be stored or accessed on your device for the purposes indicated above.

  • Personalised ads and content, ad and content measurement, audience insights, and products development

    Ads and content can be personalised based on a profile. More data can be added to better personalise ads and content. Ad and content performance can be measured. Insights about the audience who saw the ads and content can be derived. Such data can be used to develop or improve user’s experience, systems and software.

By clicking ‘I Agree’ you will allow the use of indicated cookies, device identifiers, web beacons or other similar technologies. Your settings can be changed in the browser on your device.

For certain purposes, legitimate interests may be relied on, rather than consent. You can read more about this in our Privacy and Cookie Policy.